Tracking 29494 objects as of 8-Sep-2024
HD Live streaming from Space Station
objects crossing your sky now

EKRAN 10

Track EKRAN 10 now!
EKRAN 10 is classified as:


NORAD ID: 13878
Int'l Code: 1983-016A
Perigee: 37,203.2 km
Apogee: 37,456.8 km
Inclination: 11.8 °
Period: 1,515.3 minutes
Semi major axis: 43700 km
RCS: 6.5767 m2 (large)
Launch date: March 12, 1983
Source: Commonwealth of Independent States (former USSR) (CIS)
Launch site: TYURATAM MISSILE AND SPACE COMPLEX (TTMTR)
Your satellite tracking list
Your tracking list is empty




NASA's NSSDC Master Catalog

Two Line Element Set (TLE):
1 13878U 83016A   24251.60045045 -.00000131  00000-0  00000-0 0  9999
2 13878  11.7536 315.0241 0029018  11.0573  24.4673  0.95031178113022
Source of the keplerian elements: AFSPC